SAA926 HKJK-HKMO

Flight info

Callsign SAA926
Flight time 0h 44m
Altitude 31000
Route APNOM2E UVOVA UQ135 NEREV NEREV3A
Aircraft A320/M-SDE3FGHIRWY/LB1

Departure

Time 2026-04-28 10:26
Airport Jomo Kenyatta International Airport (HKJK)

Arrival

Time 2026-04-28 11:10
Airport Moi International Airport (HKMO)
Time Latitude Longitude Altitude Speed Heading
2026-04-28 09:50 -1.32854 36.92414 5367 ft 0 kts 155°
2026-04-28 09:59 -1.32846 36.92410 5332 ft 1 kts 155°
2026-04-28 09:59 -1.32837 36.92406 5339 ft 1 kts 155°
2026-04-28 10:00 -1.32828 36.92402 5339 ft 1 kts 154°
2026-04-28 10:00 -1.32819 36.92397 5341 ft 1 kts 153°
2026-04-28 10:00 -1.32810 36.92393 5340 ft 1 kts 153°
2026-04-28 10:00 -1.32801 36.92388 5340 ft 1 kts 152°
2026-04-28 10:01 -1.32792 36.92383 5342 ft 1 kts 151°
2026-04-28 10:01 -1.32787 36.92380 5342 ft 0 kts 150°
2026-04-28 10:08 -1.32789 36.92382 5339 ft 1 kts 150°
2026-04-28 10:08 -1.32803 36.92388 5341 ft 3 kts 165°
2026-04-28 10:08 -1.32817 36.92379 5339 ft 2 kts 242°
2026-04-28 10:09 -1.32817 36.92362 5341 ft 3 kts 274°
2026-04-28 10:09 -1.32817 36.92341 5340 ft 3 kts 260°
2026-04-28 10:09 -1.32836 36.92311 5345 ft 7 kts 234°
2026-04-28 10:09 -1.32845 36.92297 5340 ft 1 kts 240°
2026-04-28 10:10 -1.32849 36.92288 5341 ft 2 kts 244°
2026-04-28 10:10 -1.32851 36.92270 5341 ft 3 kts 272°
2026-04-28 10:10 -1.32837 36.92244 5345 ft 6 kts 310°
2026-04-28 10:10 -1.32812 36.92222 5341 ft 2 kts 319°
2026-04-28 10:11 -1.32798 36.92211 5341 ft 3 kts 326°
2026-04-28 10:11 -1.32769 36.92205 5341 ft 5 kts
2026-04-28 10:11 -1.32733 36.92229 5340 ft 7 kts 48°
2026-04-28 10:11 -1.32698 36.92275 5341 ft 6 kts 53°
2026-04-28 10:12 -1.32675 36.92306 5339 ft 6 kts 55°
2026-04-28 10:12 -1.32646 36.92347 5338 ft 9 kts 53°
2026-04-28 10:12 -1.32615 36.92389 5341 ft 8 kts 53°
2026-04-28 10:12 -1.32577 36.92440 5340 ft 10 kts 54°
2026-04-28 10:13 -1.32536 36.92498 5337 ft 10 kts 54°
2026-04-28 10:13 -1.32505 36.92541 5338 ft 5 kts 54°
2026-04-28 10:13 -1.32489 36.92563 5335 ft 3 kts 54°
2026-04-28 10:13 -1.32471 36.92588 5336 ft 6 kts 54°
2026-04-28 10:14 -1.32442 36.92627 5338 ft 8 kts 54°
2026-04-28 10:14 -1.32403 36.92681 5336 ft 11 kts 54°
2026-04-28 10:14 -1.32353 36.92751 5332 ft 14 kts 53°
2026-04-28 10:14 -1.32313 36.92806 5331 ft 8 kts 54°
2026-04-28 10:15 -1.32277 36.92855 5332 ft 10 kts 54°
2026-04-28 10:15 -1.32231 36.92919 5333 ft 13 kts 54°
2026-04-28 10:15 -1.32195 36.92969 5333 ft 14 kts 53°
2026-04-28 10:15 -1.32157 36.93020 5324 ft 3 kts 54°
2026-04-28 10:16 -1.32143 36.93039 5325 ft 5 kts 54°
2026-04-28 10:16 -1.32108 36.93086 5327 ft 8 kts 53°
2026-04-28 10:16 -1.32083 36.93120 5326 ft 10 kts 53°
2026-04-28 10:16 -1.32036 36.93182 5318 ft 13 kts 53°
2026-04-28 10:17 -1.31979 36.93259 5321 ft 15 kts 53°
2026-04-28 10:17 -1.31911 36.93351 5318 ft 18 kts 53°
2026-04-28 10:17 -1.31836 36.93451 5313 ft 14 kts 53°
2026-04-28 10:17 -1.31792 36.93513 5315 ft 12 kts 54°
2026-04-28 10:18 -1.31749 36.93573 5314 ft 9 kts 54°
2026-04-28 10:18 -1.31718 36.93615 5316 ft 6 kts 53°
2026-04-28 10:18 -1.31712 36.93623 5319 ft 0 kts 53°
2026-04-28 10:18 -1.31701 36.93638 5317 ft 7 kts 53°
2026-04-28 10:19 -1.31662 36.93690 5317 ft 11 kts 53°
2026-04-28 10:19 -1.31612 36.93758 5313 ft 13 kts 54°
2026-04-28 10:19 -1.31552 36.93841 5315 ft 16 kts 54°
2026-04-28 10:19 -1.31481 36.93939 5312 ft 19 kts 53°
2026-04-28 10:20 -1.31432 36.93997 5313 ft 7 kts 31°
2026-04-28 10:20 -1.31374 36.93978 5309 ft 10 kts 325°
2026-04-28 10:20 -1.31315 36.93933 5311 ft 11 kts 323°
2026-04-28 10:20 -1.31248 36.93886 5313 ft 12 kts 326°
2026-04-28 10:21 -1.31172 36.93837 5313 ft 13 kts 354°
2026-04-28 10:21 -1.31101 36.93902 5308 ft 16 kts 52°
2026-04-28 10:21 -1.31030 36.94002 5303 ft 20 kts 53°
2026-04-28 10:21 -1.30943 36.94120 5306 ft 22 kts 54°
2026-04-28 10:22 -1.30845 36.94253 5304 ft 25 kts 53°
2026-04-28 10:22 -1.30740 36.94395 5303 ft 21 kts 53°
2026-04-28 10:22 -1.30693 36.94460 5304 ft 10 kts 53°
2026-04-28 10:22 -1.30645 36.94525 5303 ft 13 kts 53°
2026-04-28 10:23 -1.30604 36.94548 5302 ft 2 kts 12°
2026-04-28 10:23 -1.30580 36.94554 5300 ft 5 kts 12°
2026-04-28 10:23 -1.30552 36.94588 5301 ft 7 kts 87°
2026-04-28 10:23 -1.30587 36.94605 5302 ft 6 kts 221°
2026-04-28 10:24 -1.30598 36.94592 5302 ft 0 kts 233°
2026-04-28 10:25 -1.30621 36.94561 5301 ft 27 kts 233°
2026-04-28 10:25 -1.30886 36.94202 5306 ft 99 kts 233°
2026-04-28 10:25 -1.31411 36.93495 5313 ft 152 kts 234°
2026-04-28 10:25 -1.32108 36.92523 5511 ft 181 kts 232°
2026-04-28 10:26 -1.32834 36.91495 6272 ft 180 kts 233°
2026-04-28 10:26 -1.33593 36.90510 6974 ft 180 kts 228°
2026-04-28 10:26 -1.34634 36.89737 7279 ft 198 kts 206°
2026-04-28 10:26 -1.35992 36.89212 7483 ft 221 kts 198°
2026-04-28 10:27 -1.37551 36.88727 7680 ft 250 kts 199°
2026-04-28 10:27 -1.39279 36.88117 7974 ft 276 kts 202°
2026-04-28 10:27 -1.41105 36.87359 8463 ft 286 kts 204°
2026-04-28 10:27 -1.42912 36.86582 9496 ft 285 kts 204°
2026-04-28 10:28 -1.44775 36.85772 9755 ft 295 kts 205°
2026-04-28 10:28 -1.46665 36.84929 9968 ft 306 kts 204°
2026-04-28 10:28 -1.48779 36.84289 9842 ft 324 kts 186°
2026-04-28 10:29 -1.52779 36.85772 10187 ft 333 kts 129°
2026-04-28 10:29 -1.53781 36.87852 10843 ft 338 kts 102°
2026-04-28 10:29 -1.53942 36.90218 11465 ft 344 kts 89°
2026-04-28 10:29 -1.54079 36.92614 12200 ft 348 kts 100°
2026-04-28 10:30 -1.54756 36.94938 12902 ft 351 kts 112°
2026-04-28 10:30 -1.55848 36.97131 13604 ft 355 kts 119°
2026-04-28 10:30 -1.57016 36.99324 14217 ft 360 kts 117°
2026-04-28 10:30 -1.58030 37.01618 14843 ft 363 kts 110°
2026-04-28 10:31 -1.58808 37.04025 15462 ft 366 kts 106°
2026-04-28 10:31 -1.59466 37.06504 15992 ft 372 kts 104°
2026-04-28 10:31 -1.60104 37.09015 16651 ft 373 kts 104°
2026-04-28 10:31 -1.60791 37.11517 17315 ft 374 kts 106°
2026-04-28 10:32 -1.61536 37.14020 17911 ft 378 kts 107°
2026-04-28 10:32 -1.62324 37.16540 18470 ft 381 kts 107°
2026-04-28 10:32 -1.63134 37.19066 19003 ft 383 kts 108°
2026-04-28 10:32 -1.63956 37.21610 19561 ft 385 kts 108°
2026-04-28 10:33 -1.64777 37.24157 20100 ft 387 kts 108°
2026-04-28 10:33 -1.65584 37.26691 20657 ft 388 kts 107°
2026-04-28 10:33 -1.66399 37.29272 21212 ft 390 kts 107°
2026-04-28 10:33 -1.67215 37.31865 21747 ft 393 kts 107°
2026-04-28 10:34 -1.68037 37.34476 22291 ft 394 kts 107°
2026-04-28 10:34 -1.68862 37.37096 22873 ft 396 kts 107°
2026-04-28 10:34 -1.69689 37.39729 23384 ft 399 kts 107°
2026-04-28 10:34 -1.70522 37.42389 23826 ft 402 kts 107°
2026-04-28 10:35 -1.71365 37.45070 24252 ft 405 kts 107°
2026-04-28 10:35 -1.72207 37.47742 24666 ft 407 kts 107°
2026-04-28 10:35 -1.72976 37.50180 25045 ft 409 kts 107°
2026-04-28 10:35 -1.73835 37.52902 25442 ft 412 kts 107°
2026-04-28 10:36 -1.74698 37.55639 25855 ft 414 kts 107°
2026-04-28 10:36 -1.75563 37.58396 26250 ft 416 kts 107°
2026-04-28 10:36 -1.76451 37.61154 26631 ft 419 kts 110°
2026-04-28 10:36 -1.77703 37.63792 26996 ft 422 kts 121°
2026-04-28 10:37 -1.79423 37.66174 27361 ft 424 kts 131°
2026-04-28 10:37 -1.81502 37.68273 27729 ft 427 kts 135°
2026-04-28 10:37 -1.83635 37.70353 28082 ft 429 kts 135°
2026-04-28 10:37 -1.85775 37.72452 28428 ft 432 kts 135°
2026-04-28 10:38 -1.87918 37.74566 28805 ft 434 kts 135°
2026-04-28 10:38 -1.90065 37.76688 29178 ft 436 kts 135°
2026-04-28 10:38 -1.92228 37.78829 29557 ft 438 kts 135°
2026-04-28 10:38 -1.94400 37.80979 29916 ft 441 kts 135°
2026-04-28 10:39 -1.96582 37.83138 30236 ft 443 kts 135°
2026-04-28 10:39 -1.98776 37.85309 30542 ft 445 kts 134°
2026-04-28 10:39 -2.00987 37.87493 30842 ft 447 kts 135°
2026-04-28 10:40 -2.05366 37.91799 30955 ft 428 kts 135°
2026-04-28 10:40 -2.09515 37.95884 30953 ft 414 kts 134°
2026-04-28 10:41 -2.13605 37.99921 30953 ft 413 kts 135°
2026-04-28 10:41 -2.17693 38.03950 30947 ft 412 kts 135°
2026-04-28 10:42 -2.21774 38.07978 30948 ft 413 kts 135°
2026-04-28 10:42 -2.25863 38.12009 30938 ft 413 kts 135°
2026-04-28 10:43 -2.29946 38.16044 30941 ft 413 kts 135°
2026-04-28 10:43 -2.34034 38.20079 30939 ft 413 kts 134°
2026-04-28 10:44 -2.38120 38.24104 30941 ft 412 kts 135°
2026-04-28 10:44 -2.42170 38.28106 30943 ft 412 kts 135°
2026-04-28 10:45 -2.46250 38.32136 30931 ft 412 kts 135°
2026-04-28 10:45 -2.50336 38.36166 30931 ft 413 kts 135°
2026-04-28 10:46 -2.54424 38.40197 30928 ft 413 kts 135°
2026-04-28 10:46 -2.58513 38.44231 30928 ft 413 kts 135°
2026-04-28 10:47 -2.62597 38.48267 30921 ft 412 kts 134°
2026-04-28 10:47 -2.66676 38.52298 30893 ft 411 kts 135°
2026-04-28 10:47 -2.68696 38.54292 30661 ft 405 kts 135°
2026-04-28 10:48 -2.70698 38.56268 30432 ft 403 kts 135°
2026-04-28 10:48 -2.72685 38.58230 30210 ft 401 kts 135°
2026-04-28 10:48 -2.74666 38.60186 29979 ft 399 kts 135°
2026-04-28 10:48 -2.76631 38.62129 29671 ft 395 kts 135°
2026-04-28 10:49 -2.78579 38.64052 29263 ft 392 kts 135°
2026-04-28 10:49 -2.80514 38.65963 28869 ft 390 kts 136°
2026-04-28 10:49 -2.82445 38.67871 28465 ft 388 kts 136°
2026-04-28 10:49 -2.84360 38.69762 28088 ft 387 kts 136°
2026-04-28 10:50 -2.86270 38.71648 27702 ft 385 kts 136°
2026-04-28 10:50 -2.87530 38.72897 27427 ft 384 kts 135°
2026-04-28 10:50 -2.90060 38.75405 26897 ft 382 kts 136°
2026-04-28 10:50 -2.91944 38.77266 26495 ft 380 kts 136°
2026-04-28 10:51 -2.93828 38.79122 26084 ft 379 kts 136°
2026-04-28 10:51 -2.95706 38.80973 25668 ft 378 kts 136°
2026-04-28 10:51 -2.97579 38.82823 25246 ft 378 kts 136°
2026-04-28 10:51 -2.99445 38.84672 24817 ft 377 kts 136°
2026-04-28 10:52 -3.01282 38.86492 24383 ft 377 kts 136°
2026-04-28 10:52 -3.03148 38.88339 23939 ft 377 kts 135°
2026-04-28 10:52 -3.05015 38.90187 23494 ft 377 kts 136°
2026-04-28 10:52 -3.06876 38.92029 22990 ft 377 kts 136°
2026-04-28 10:53 -3.08737 38.93866 22528 ft 374 kts 136°
2026-04-28 10:53 -3.10581 38.95683 22096 ft 371 kts 136°
2026-04-28 10:53 -3.12413 38.97486 21669 ft 369 kts 136°
2026-04-28 10:53 -3.14236 38.99282 21203 ft 367 kts 136°
2026-04-28 10:54 -3.16048 39.01073 20769 ft 365 kts 135°
2026-04-28 10:54 -3.17846 39.02854 20332 ft 363 kts 135°
2026-04-28 10:54 -3.19636 39.04626 19897 ft 362 kts 135°
2026-04-28 10:54 -3.21422 39.06397 19464 ft 361 kts 135°
2026-04-28 10:55 -3.23202 39.08163 19027 ft 360 kts 135°
2026-04-28 10:55 -3.24977 39.09918 18591 ft 359 kts 135°
2026-04-28 10:55 -3.26753 39.11674 18149 ft 358 kts 135°
2026-04-28 10:55 -3.28521 39.13422 17668 ft 357 kts 135°
2026-04-28 10:56 -3.30278 39.15161 17232 ft 354 kts 135°
2026-04-28 10:56 -3.32025 39.16891 16806 ft 351 kts 135°
2026-04-28 10:56 -3.33754 39.18603 16384 ft 349 kts 135°
2026-04-28 10:56 -3.35478 39.20312 15962 ft 347 kts 136°
2026-04-28 10:57 -3.37187 39.22005 15541 ft 346 kts 136°
2026-04-28 10:57 -3.38896 39.23694 15124 ft 344 kts 136°
2026-04-28 10:57 -3.40595 39.25373 14712 ft 343 kts 136°
2026-04-28 10:57 -3.42287 39.27045 14296 ft 341 kts 136°
2026-04-28 10:58 -3.43971 39.28709 13883 ft 340 kts 137°
2026-04-28 10:58 -3.45652 39.30372 13440 ft 339 kts 137°
2026-04-28 10:58 -3.47323 39.32025 13018 ft 336 kts 136°
2026-04-28 10:58 -3.48977 39.33661 12609 ft 334 kts 136°
2026-04-28 10:59 -3.50625 39.35291 12195 ft 331 kts 136°
2026-04-28 10:59 -3.52235 39.36885 11798 ft 329 kts 136°
2026-04-28 10:59 -3.53854 39.38489 11401 ft 327 kts 137°
2026-04-28 10:59 -3.55466 39.40086 10994 ft 325 kts 137°
2026-04-28 11:00 -3.57071 39.41673 10595 ft 324 kts 137°
2026-04-28 11:00 -3.58668 39.43248 10196 ft 322 kts 137°
2026-04-28 11:00 -3.60249 39.44812 9841 ft 318 kts 137°
2026-04-28 11:00 -3.61803 39.46353 9643 ft 308 kts 138°
2026-04-28 11:01 -3.63303 39.47842 9408 ft 301 kts 137°
2026-04-28 11:01 -3.64771 39.49299 8921 ft 295 kts 138°
2026-04-28 11:01 -3.66214 39.50729 8355 ft 289 kts 138°
2026-04-28 11:01 -3.67613 39.52114 7989 ft 276 kts 137°
2026-04-28 11:02 -3.68949 39.53442 7645 ft 265 kts 137°
2026-04-28 11:02 -3.70230 39.54716 7315 ft 255 kts 137°
2026-04-28 11:02 -3.71493 39.55967 6998 ft 258 kts 139°
2026-04-28 11:02 -3.72337 39.56801 6780 ft 258 kts 138°
2026-04-28 11:03 -3.73599 39.58047 6662 ft 250 kts 137°
2026-04-28 11:03 -3.74812 39.59247 6556 ft 240 kts 137°
2026-04-28 11:03 -3.75976 39.60399 6456 ft 230 kts 139°
2026-04-28 11:03 -3.77089 39.61504 6361 ft 220 kts 139°
2026-04-28 11:04 -3.78071 39.62632 6249 ft 213 kts 125°
2026-04-28 11:04 -3.78830 39.63934 5782 ft 222 kts 123°
2026-04-28 11:04 -3.79615 39.65311 5240 ft 232 kts 122°
2026-04-28 11:04 -3.80421 39.66738 4635 ft 237 kts 122°
2026-04-28 11:05 -3.81219 39.68161 4304 ft 227 kts 123°
2026-04-28 11:05 -3.81969 39.69475 4266 ft 208 kts 128°
2026-04-28 11:05 -3.83029 39.70276 4235 ft 184 kts 167°
2026-04-28 11:05 -3.84243 39.70182 4009 ft 177 kts 206°
2026-04-28 11:06 -3.85281 39.69537 3762 ft 175 kts 208°
2026-04-28 11:06 -3.86361 39.68966 3443 ft 177 kts 206°
2026-04-28 11:06 -3.87448 39.68383 3178 ft 176 kts 207°
2026-04-28 11:06 -3.88510 39.67798 2941 ft 173 kts 206°
2026-04-28 11:07 -3.89562 39.67212 2719 ft 172 kts 207°
2026-04-28 11:07 -3.90602 39.66632 2499 ft 170 kts 207°
2026-04-28 11:07 -3.91637 39.66053 2276 ft 171 kts 207°
2026-04-28 11:07 -3.92668 39.65477 2049 ft 168 kts 208°
2026-04-28 11:08 -3.93671 39.64916 1844 ft 162 kts 205°
2026-04-28 11:08 -3.94632 39.64378 1636 ft 154 kts 207°
2026-04-28 11:08 -3.95545 39.63868 1465 ft 145 kts 207°
2026-04-28 11:08 -3.96399 39.63390 1264 ft 135 kts 208°
2026-04-28 11:09 -3.97225 39.62928 1103 ft 135 kts 207°
2026-04-28 11:09 -3.98036 39.62471 976 ft 133 kts 208°
2026-04-28 11:09 -3.98841 39.62022 766 ft 136 kts 207°
2026-04-28 11:09 -3.99638 39.61575 624 ft 131 kts 206°
2026-04-28 11:10 -4.00435 39.61133 360 ft 130 kts 207°
2026-04-28 11:10 -4.01247 39.60679 265 ft 134 kts 207°
2026-04-28 11:10 -4.01981 39.60277 203 ft 102 kts 207°
2026-04-28 11:10 -4.02341 39.60087 204 ft 15 kts 212°
2026-04-28 11:11 -4.02349 39.60082 203 ft 1 kts 214°
2026-04-28 11:11 -4.02421 39.60027 203 ft 33 kts 216°
2026-04-28 11:11 -4.02621 39.59906 211 ft 30 kts 203°
2026-04-28 11:11 -4.02698 39.59923 205 ft 18 kts 155°
2026-04-28 11:12 -4.02821 39.60002 206 ft 19 kts 130°
2026-04-28 11:12 -4.02868 39.60078 200 ft 0 kts 125°
2026-04-28 11:13 -4.02869 39.60081 200 ft 2 kts 121°
2026-04-28 11:13 -4.02883 39.60102 203 ft 5 kts 140°
2026-04-28 11:14 -4.02916 39.60085 206 ft 7 kts 218°
2026-04-28 11:14 -4.02972 39.60051 203 ft 11 kts 211°
2026-04-28 11:14 -4.02989 39.60040 202 ft 0 kts 214°
2026-04-28 11:22 -3.98793 39.62049 796 ft 136 kts 206°